Погода в Псельце

Россия / Курская область     51°17′17″N   36°31′38″E
темп.,
°C
ветер,
м/с
пор.,
м/с
влажн.,
%
обл.,
%
осадки,
мм/ч
давл.,
гПа
погр.,
м
27 ноября, сб
сб2700:00−1ююв5129163 0.0 1015289
03:00−1ююв51496100 0.0 1013321
06:00+1ююв61788100 0.0 1011442
09:00+2ююв91987100 0.0 1008621
12:00+3юв91991100 1.3 1005625
15:00+3ю91995100 2.0 1004641
18:00+4ю71694100 0.1 1004456
21:00+5ю61296100 0.1 1004345
28 ноября, вс
вс2800:00+5ю4109684 0.0 1005229
03:00+6ююз5894100 0.0 1005375
06:00+5ююз379872 0.0 1006186
09:00+4ююз349986 0.0 1008150
12:00+6ююз349184 0.0 1008281
15:00+6ююз348899 0.0 1009376
18:00+7ююв578598 0.0 1010284
21:00+5юв4109597 0.0 1009203
29 ноября, пн
пн2900:00+5ююв41196100 0.0 1009234
03:00+6юв4996100 0.0 1007200
06:00+7юв41198100 1.6 1004289
09:00+8ююв41098100 2.1 1002383
12:00+9ююв61497100 0.7 999578
15:00+10ю71489100 0.8 995723
18:00+10ю81695100 2.9 991905
21:00+11ю81690100 5.4 988794
30 ноября, вт
вт3000:00+11ююз10188598 6.0 9851078
03:00+7зюз101683100 6.3 9881168
06:00+4зюз101571100 0.0 9921073
09:00+3зюз101564100 0.0 9941291
12:00+4юз915605 0.0 9951167
15:00+3юз9156661 0.0 9941170
18:00+2юз9146793 0.0 9941310
21:00+1юз9157288 0.0 9941048
1 декабря, ср
ср100:00−1зюз8138796 0.1 9951091
03:00−1з81181100 0.3 997916
06:00−2з71277100 0.4 999869
09:00−2з7118299 0.4 1000875
12:00−1зюз7971100 0.1 1001938
15:00−1юз51094100 0.7 1000776
18:00−1юз5119693 1.1 1000720
21:000зюз61192100 1.3 1001630